Time,TemperatureF,DewpointF,PressureIn,WindDirection,WindDirectionDegrees,WindSpeedMPH,WindSpeedGustMPH,Humidity,HourlyPrecipIn,Conditions,Clouds,dailyrainin,SolarRadiationWatts/m^2,SoftwareType,DateUTC
2013-11-04 00:21:00,45.0,37.0,-100.00,North,1,4.0,6.0,74,0.00,,,0.00,0.000000,,2013-11-04 08:21:00,
2013-11-04 00:32:00,45.0,37.0,-100.00,North,1,4.0,6.0,74,0.00,,,0.00,0.000000,,2013-11-04 08:32:00,
2013-11-04 00:42:00,45.0,37.0,-100.00,North,1,4.0,6.0,74,0.00,,,0.00,0.000000,,2013-11-04 08:42:00,
2013-11-04 00:52:00,45.0,37.0,-100.00,North,1,4.0,6.0,74,0.00,,,0.00,0.000000,,2013-11-04 08:52:00,
2013-11-04 01:21:00,44.0,37.0,-100.00,NNE,13,2.0,6.0,75,0.00,,,0.00,0.000000,,2013-11-04 09:21:00,
2013-11-04 01:33:00,44.0,37.0,-100.00,NNE,13,2.0,6.0,75,0.00,,,0.00,0.000000,,2013-11-04 09:33:00,
2013-11-04 01:43:00,44.0,37.0,-100.00,NNE,13,2.0,6.0,75,0.00,,,0.00,0.000000,,2013-11-04 09:43:00,
2013-11-04 01:53:00,44.0,37.0,-100.00,NNE,13,2.0,6.0,75,0.00,,,0.00,0.000000,,2013-11-04 09:53:00,
2013-11-04 02:23:00,47.0,39.0,-100.00,NE,47,4.0,7.0,73,0.00,,,0.00,0.000000,,2013-11-04 10:23:00,
2013-11-04 02:33:00,47.0,39.0,-100.00,NE,47,4.0,7.0,73,0.00,,,0.00,0.000000,,2013-11-04 10:33:00,
2013-11-04 02:42:00,47.0,39.0,-100.00,NE,47,4.0,7.0,73,0.00,,,0.00,0.000000,,2013-11-04 10:42:00,
2013-11-04 02:52:00,47.0,39.0,-100.00,NE,47,4.0,7.0,73,0.00,,,0.00,0.000000,,2013-11-04 10:52:00,
2013-11-04 03:22:00,46.0,37.0,-100.00,SSE,155,11.0,14.0,71,0.00,,,0.00,0.000000,,2013-11-04 11:22:00,
2013-11-04 03:32:00,46.0,37.0,-100.00,SSE,155,11.0,14.0,71,0.00,,,0.00,0.000000,,2013-11-04 11:32:00,
2013-11-04 03:42:00,46.0,37.0,-100.00,SSE,155,11.0,14.0,71,0.00,,,0.00,0.000000,,2013-11-04 11:42:00,
2013-11-04 03:52:00,46.0,37.0,-100.00,SSE,155,11.0,14.0,71,0.00,,,0.00,0.000000,,2013-11-04 11:52:00,
2013-11-04 04:22:00,45.0,37.0,-100.00,WNW,296,2.0,16.0,72,0.00,,,0.00,0.000000,,2013-11-04 12:22:00,
2013-11-04 04:32:00,45.0,37.0,-100.00,WNW,296,2.0,16.0,72,0.00,,,0.00,0.000000,,2013-11-04 12:32:00,
2013-11-04 04:42:00,45.0,37.0,-100.00,WNW,296,2.0,16.0,72,0.00,,,0.00,0.000000,,2013-11-04 12:42:00,
2013-11-04 04:52:00,45.0,37.0,-100.00,WNW,296,2.0,16.0,72,0.00,,,0.00,0.000000,,2013-11-04 12:52:00,
2013-11-04 05:21:00,46.0,37.0,-100.00,SE,141,0.0,5.0,71,0.00,,,0.00,0.000000,,2013-11-04 13:21:00,
2013-11-04 05:32:00,46.0,37.0,-100.00,SE,141,0.0,5.0,71,0.00,,,0.00,0.000000,,2013-11-04 13:32:00,
2013-11-04 05:42:00,46.0,37.0,-100.00,SE,141,0.0,5.0,71,0.00,,,0.00,0.000000,,2013-11-04 13:42:00,
2013-11-04 05:52:00,46.0,37.0,-100.00,SE,141,0.0,5.0,71,0.00,,,0.00,0.000000,,2013-11-04 13:52:00,
2013-11-04 06:22:00,45.0,37.0,-100.00,NNE,19,0.0,4.0,74,0.00,,,0.00,0.000000,,2013-11-04 14:22:00,
2013-11-04 06:32:00,45.0,37.0,-100.00,NNE,19,0.0,4.0,74,0.00,,,0.00,0.000000,,2013-11-04 14:32:00,
2013-11-04 06:42:00,45.0,37.0,-100.00,NNE,19,0.0,4.0,74,0.00,,,0.00,0.000000,,2013-11-04 14:42:00,
2013-11-04 06:52:00,45.0,37.0,-100.00,NNE,19,0.0,4.0,74,0.00,,,0.00,0.000000,,2013-11-04 14:52:00,
2013-11-04 07:21:00,43.0,36.0,-100.00,NNW,341,0.0,6.0,76,0.00,,,0.00,7.000000,,2013-11-04 15:21:00,
2013-11-04 07:32:00,43.0,36.0,-100.00,NNW,341,0.0,6.0,76,0.00,,,0.00,7.000000,,2013-11-04 15:32:00,
2013-11-04 07:52:00,43.0,36.0,-100.00,NNW,341,0.0,6.0,76,0.00,,,0.00,7.000000,,2013-11-04 15:52:00,
2013-11-04 08:23:00,46.0,37.0,-100.00,SSE,149,4.0,8.0,71,-99.99,,,0.00,125.000000,,2013-11-04 16:23:00,
2013-11-04 08:33:00,46.0,37.0,-100.00,SSE,149,4.0,8.0,71,-99.99,,,0.00,125.000000,,2013-11-04 16:33:00,
2013-11-04 08:43:00,46.0,37.0,-100.00,SSE,149,4.0,8.0,71,-99.99,,,0.00,125.000000,,2013-11-04 16:43:00,
2013-11-04 08:53:00,46.0,37.0,-100.00,SSE,149,4.0,8.0,71,-99.99,,,0.00,125.000000,,2013-11-04 16:53:00,
2013-11-04 09:22:00,51.0,36.0,-100.00,SE,144,5.0,11.0,57,0.00,,,0.00,358.000000,,2013-11-04 17:22:00,
2013-11-04 09:33:00,51.0,36.0,-100.00,SE,144,5.0,11.0,57,0.00,,,0.00,358.000000,,2013-11-04 17:33:00,
2013-11-04 09:42:00,51.0,36.0,-100.00,SE,144,5.0,11.0,57,0.00,,,0.00,358.000000,,2013-11-04 17:42:00,
2013-11-04 09:53:00,51.0,36.0,-100.00,SE,144,5.0,11.0,57,0.00,,,0.00,358.000000,,2013-11-04 17:53:00,
2013-11-04 10:23:00,52.0,36.0,-100.00,South,178,13.0,17.0,55,0.00,,,0.00,535.000000,,2013-11-04 18:23:00,
2013-11-04 10:32:00,52.0,36.0,-100.00,South,178,13.0,17.0,55,0.00,,,0.00,535.000000,,2013-11-04 18:32:00,
2013-11-04 10:42:00,52.0,36.0,-100.00,South,178,13.0,17.0,55,0.00,,,0.00,535.000000,,2013-11-04 18:42:00,
2013-11-04 10:52:00,52.0,36.0,-100.00,South,178,13.0,17.0,55,0.00,,,0.00,535.000000,,2013-11-04 18:52:00,
2013-11-04 11:22:00,55.0,36.0,-100.00,SSE,165,13.0,21.0,48,0.00,,,0.00,656.000000,,2013-11-04 19:22:00,
2013-11-04 11:33:00,55.0,36.0,-100.00,SSE,165,13.0,21.0,48,0.00,,,0.00,656.000000,,2013-11-04 19:33:00,
2013-11-04 11:42:00,55.0,36.0,-100.00,SSE,165,13.0,21.0,48,0.00,,,0.00,656.000000,,2013-11-04 19:42:00,
2013-11-04 11:52:00,55.0,36.0,-100.00,SSE,165,13.0,21.0,48,0.00,,,0.00,656.000000,,2013-11-04 19:52:00,
2013-11-04 12:22:00,56.0,34.0,-100.00,South,173,16.0,21.0,43,0.00,,,0.00,711.000000,,2013-11-04 20:22:00,
2013-11-04 12:32:00,56.0,34.0,-100.00,South,173,16.0,21.0,43,0.00,,,0.00,711.000000,,2013-11-04 20:32:00,
2013-11-04 12:42:00,56.0,34.0,-100.00,South,173,16.0,21.0,43,0.00,,,0.00,711.000000,,2013-11-04 20:42:00,
2013-11-04 12:52:00,56.0,34.0,-100.00,South,173,16.0,21.0,43,0.00,,,0.00,711.000000,,2013-11-04 20:52:00,
2013-11-04 13:22:00,56.0,30.0,-100.00,South,170,18.0,23.0,37,0.00,,,0.00,694.000000,,2013-11-04 21:22:00,
2013-11-04 13:34:00,56.0,30.0,-100.00,South,170,18.0,23.0,37,0.00,,,0.00,694.000000,,2013-11-04 21:34:00,
2013-11-04 13:44:00,56.0,30.0,-100.00,South,170,18.0,23.0,37,0.00,,,0.00,694.000000,,2013-11-04 21:44:00,
2013-11-04 13:54:00,56.0,30.0,-100.00,South,170,18.0,23.0,37,0.00,,,0.00,694.000000,,2013-11-04 21:54:00,
2013-11-04 14:23:00,56.0,27.0,-100.00,South,179,17.0,25.0,33,0.00,,,0.00,607.000000,,2013-11-04 22:23:00,
2013-11-04 14:33:00,56.0,27.0,-100.00,South,179,17.0,25.0,33,0.00,,,0.00,607.000000,,2013-11-04 22:33:00,
2013-11-04 14:43:00,56.0,27.0,-100.00,South,179,17.0,25.0,33,0.00,,,0.00,607.000000,,2013-11-04 22:43:00,
2013-11-04 14:53:00,56.0,27.0,-100.00,South,179,17.0,25.0,33,0.00,,,0.00,607.000000,,2013-11-04 22:53:00,
2013-11-04 15:22:00,56.0,27.0,-100.00,SSE,160,22.0,27.0,33,0.00,,,0.00,466.000000,,2013-11-04 23:22:00,
2013-11-04 15:33:00,56.0,27.0,-100.00,SSE,160,22.0,27.0,33,0.00,,,0.00,466.000000,,2013-11-04 23:33:00,
2013-11-04 15:43:00,56.0,27.0,-100.00,SSE,160,22.0,27.0,33,0.00,,,0.00,466.000000,,2013-11-04 23:43:00,
2013-11-04 15:53:00,56.0,27.0,-100.00,SSE,160,22.0,27.0,33,0.00,,,0.00,466.000000,,2013-11-04 23:53:00,
2013-11-04 16:22:00,55.0,29.0,-100.00,SSE,155,21.0,30.0,36,0.00,,,0.00,228.000000,,2013-11-05 00:22:00,
2013-11-04 16:32:00,55.0,29.0,-100.00,SSE,155,21.0,30.0,36,0.00,,,0.00,228.000000,,2013-11-05 00:32:00,
2013-11-04 16:42:00,55.0,29.0,-100.00,SSE,155,21.0,30.0,36,0.00,,,0.00,228.000000,,2013-11-05 00:42:00,
2013-11-04 16:52:00,55.0,29.0,-100.00,SSE,155,21.0,30.0,36,0.00,,,0.00,228.000000,,2013-11-05 00:52:00,
2013-11-04 17:21:00,51.0,28.0,-100.00,South,177,18.0,27.0,40,0.00,,,0.00,34.000000,,2013-11-05 01:21:00,
2013-11-04 17:32:00,51.0,28.0,-100.00,South,177,18.0,27.0,40,0.00,,,0.00,34.000000,,2013-11-05 01:32:00,
2013-11-04 17:42:00,51.0,28.0,-100.00,South,177,18.0,27.0,40,0.00,,,0.00,34.000000,,2013-11-05 01:42:00,
2013-11-04 17:52:00,51.0,28.0,-100.00,South,177,18.0,27.0,40,0.00,,,0.00,34.000000,,2013-11-05 01:52:00,
2013-11-04 18:22:00,50.0,28.0,-100.00,South,169,20.0,26.0,43,0.00,,,0.00,0.000000,,2013-11-05 02:22:00,
2013-11-04 18:32:00,50.0,28.0,-100.00,South,169,20.0,26.0,43,0.00,,,0.00,0.000000,,2013-11-05 02:32:00,
2013-11-04 18:42:00,50.0,28.0,-100.00,South,169,20.0,26.0,43,0.00,,,0.00,0.000000,,2013-11-05 02:42:00,
2013-11-04 18:52:00,50.0,28.0,-100.00,South,169,20.0,26.0,43,0.00,,,0.00,0.000000,,2013-11-05 02:52:00,
2013-11-04 19:22:00,46.0,28.0,-100.00,SSE,160,3.0,20.0,49,0.00,,,0.00,0.000000,,2013-11-05 03:22:00,
2013-11-04 19:33:00,46.0,28.0,-100.00,SSE,160,3.0,20.0,49,0.00,,,0.00,0.000000,,2013-11-05 03:33:00,
2013-11-04 19:44:00,46.0,28.0,-100.00,SSE,160,3.0,20.0,49,0.00,,,0.00,0.000000,,2013-11-05 03:44:00,
2013-11-04 19:54:00,46.0,28.0,-100.00,SSE,160,3.0,20.0,49,0.00,,,0.00,0.000000,,2013-11-05 03:54:00,
2013-11-04 20:23:00,47.0,29.0,-100.00,SE,144,0.0,8.0,50,0.00,,,0.00,0.000000,,2013-11-05 04:23:00,
2013-11-04 20:34:00,47.0,29.0,-100.00,SE,144,0.0,8.0,50,0.00,,,0.00,0.000000,,2013-11-05 04:34:00,
2013-11-04 20:43:00,47.0,29.0,-100.00,SE,144,0.0,8.0,50,0.00,,,0.00,0.000000,,2013-11-05 04:43:00,
2013-11-04 20:53:00,47.0,29.0,-100.00,SE,144,0.0,8.0,50,0.00,,,0.00,0.000000,,2013-11-05 04:53:00,
2013-11-04 21:23:00,46.0,29.0,-100.00,SSE,157,1.0,5.0,52,0.00,,,0.00,0.000000,,2013-11-05 05:23:00,
2013-11-04 21:34:00,46.0,29.0,-100.00,SSE,157,1.0,5.0,52,0.00,,,0.00,0.000000,,2013-11-05 05:34:00,
2013-11-04 21:43:00,46.0,29.0,-100.00,SSE,157,1.0,5.0,52,0.00,,,0.00,0.000000,,2013-11-05 05:43:00,
2013-11-04 21:53:00,46.0,29.0,-100.00,SSE,157,1.0,5.0,52,0.00,,,0.00,0.000000,,2013-11-05 05:53:00,
2013-11-04 22:21:00,43.0,28.0,-100.00,North,359,4.0,8.0,56,0.00,,,0.00,0.000000,,2013-11-05 06:21:00,
2013-11-04 22:32:00,43.0,28.0,-100.00,North,359,4.0,8.0,56,0.00,,,0.00,0.000000,,2013-11-05 06:32:00,
2013-11-04 22:42:00,43.0,28.0,-100.00,North,359,4.0,8.0,56,0.00,,,0.00,0.000000,,2013-11-05 06:42:00,
2013-11-04 22:52:00,43.0,28.0,-100.00,North,359,4.0,8.0,56,0.00,,,0.00,0.000000,,2013-11-05 06:52:00,
2013-11-04 23:22:00,43.0,31.0,-100.00,SE,133,0.0,10.0,63,0.00,,,0.00,0.000000,,2013-11-05 07:22:00,
2013-11-04 23:32:00,43.0,31.0,-100.00,SE,133,0.0,10.0,63,0.00,,,0.00,0.000000,,2013-11-05 07:32:00,
2013-11-04 23:42:00,43.0,31.0,-100.00,SE,133,0.0,10.0,63,0.00,,,0.00,0.000000,,2013-11-05 07:42:00,
2013-11-04 23:52:00,43.0,31.0,-100.00,SE,133,0.0,10.0,63,0.00,,,0.00,0.000000,,2013-11-05 07:52:00,